Terminal Aerodrome Forecast
Issued by NWS Sterling, VA

Current Version | Previous Version | Graphics & Text | Print | Product List | Glossary On
Versions: 1 2 3 4 5 6 7 8 9 10 11 12 13 14 15 16 17 18 19 20 21 22 23
000
FTUS41 KLWX 251755
TAFIAD
TAF
KIAD 251755Z 2518/2624 21009KT P6SM FEW050 BKN230
     FM260300 VRB03KT P6SM BKN035 OVC120
     FM260800 04007KT 3SM -SN OVC025
     FM261200 01010KT 1SM -SN OVC015
     FM261500 35010KT 4SM -SN OVC020
     FM261900 34010KT P6SM BKN035=

USA.gov is the U.S. government's official web portal to all federal, state and local government web resources and services.